Location: Newark
(25.6108°S, 54.5803°W)
Time: 07:35:54
(UTC+00:00)

Courier 1B - Pass Details

Date: 04 November 2020
Orbit: 962 x 1209 km, 28.3° (Epoch: 02 December)

Event Time Altitude Azimuth Distance (km) Brightness Sun altitude
Rises 19:50:09 0° 340° (NNW) 3,640 10.7 27.1°
Reaches altitude 10° 19:54:16 10° 4° (N) 2,728 9.8 26.2°
Maximum altitude 19:57:25 14° 33° (NNE) 2,491 9.4 25.5°
Drops below altitude 10° 20:00:38 10° 62° (ENE) 2,801 9.5 24.7°
Sets 20:04:57 0° 86° (E) 3,813 10.0 23.8°
